This is the latest recevied weather packets stored in our database for station/object HA6IFZ-10. If no packets are shown the sender has not sent any weather packets the latest 10 day(s).
| Time | Temp. | Humidity | Pressure | Rain* | Wind** | Luminosity | Snow |
|---|---|---|---|---|---|---|---|
| 1787676479 | 25.56° C | 31% | 1021.2 hPa | - | - | - | - |
| 1787675579 | 26.11° C | 30% | 1021.1 hPa | - | - | - | - |
| 1787674679 | 26.11° C | 30% | 1021.5 hPa | - | - | - | - |
| 1787673779 | 26.67° C | 29% | 1021.4 hPa | - | - | - | - |
| 1787672879 | 26.67° C | 29% | 1021.3 hPa | - | - | - | - |
| 1787671978 | 26.67° C | 28% | 1021.5 hPa | - | - | - | - |
| 1787671078 | 27.22° C | 28% | 1021.6 hPa | - | - | - | - |
| 1787670178 | 27.22° C | 27% | 1021.6 hPa | - | - | - | - |
| 1787669278 | 27.78° C | 26% | 1021.7 hPa | - | - | - | - |
| 1787668378 | 27.78° C | 26% | 1021.5 hPa | - | - | - | - |
| 1787667478 | 27.78° C | 26% | 1021.5 hPa | - | - | - | - |
| 1787666578 | 27.78° C | 25% | 1021.4 hPa | - | - | - | - |
| 1787665678 | 28.33° C | 25% | 1021.4 hPa | - | - | - | - |
| 1787664778 | 28.33° C | 25% | 1021.4 hPa | - | - | - | - |
| 1787663878 | 28.33° C | 25% | 1021.5 hPa | - | - | - | - |
| 1787662977 | 28.33° C | 25% | 1021.7 hPa | - | - | - | - |
| 1787662077 | 28.33° C | 25% | 1021.7 hPa | - | - | - | - |
| 1787661177 | 28.33° C | 25% | 1021.8 hPa | - | - | - | - |
| 1787660277 | 28.89° C | 25% | 1022.1 hPa | - | - | - | - |
| 1787659377 | 28.33° C | 25% | 1022.3 hPa | - | - | - | - |
| 1787658477 | 28.89° C | 24% | 1022.2 hPa | - | - | - | - |
| 1787657577 | 30° C | 23% | 1022.4 hPa | - | - | - | - |
| 1787656677 | 29.44° C | 23% | 1022.6 hPa | - | - | - | - |
| 1787654882 | 28.33° C | 25% | 1022.9 hPa | - | - | - | - |
| 1787653982 | 27.22° C | 26% | 1023.3 hPa | - | - | - | - |
* Rain since midnight (hover to see other rain measurements)
** Current wind speed in m/s (hover to see current wind gust speed)